K5KVN-2 Weather Reports


Display with metric or nautical units.
time (UTC)temp
F
wind
direction
speed
MPH
gust
MPH
rain 1hr
in
rain 24hr
in
rain mn
in
humidity
%
barometer
mb
20260831093244 80 157 4.0 6.0 0.00 0.00 0.00 59 1017.0
20260831092243 80 157 5.0 7.0 0.00 0.00 0.00 59 1016.9
20260831091243 81 151 6.0 9.0 0.00 0.00 0.00 58 1016.9
20260831090241 81 163 7.0 12.0 0.00 0.00 0.00 57 1016.8
20260831085242 81 171 7.0 12.0 0.00 0.00 0.00 56 1016.8
20260831084240 81 165 8.0 12.0 0.00 0.00 0.00 56 1016.8
20260831083241 81 132 8.0 11.0 0.00 0.00 0.00 55 1016.7
20260831082241 81 165 8.0 13.0 0.00 0.00 0.00 55 1016.6
20260831081723 81 159 8.0 12.0 0.00 0.00 0.00 55 1016.6
20260831080241 80 170 6.0 10.0 0.00 0.00 0.00 56 1016.6
20260831074236 80 155 3.0 5.0 0.00 0.00 0.00 54 1016.5
20260831073234 81 157 3.0 6.0 0.00 0.00 0.00 54 1016.5
20260831072235 81 151 3.0 5.0 0.00 0.00 0.00 53 1016.8
20260831071234 81 153 4.0 7.0 0.00 0.00 0.00 53 1016.8
20260831070235 81 157 4.0 7.0 0.00 0.00 0.00 53 1016.6
20260831065235 80 153 4.0 6.0 0.00 0.00 0.00 53 1016.8
20260831064237 80 156 5.0 7.0 0.00 0.00 0.00 53 1016.8
20260831063236 80 163 4.0 6.0 0.00 0.00 0.00 53 1016.9
20260831062713 80 162 5.0 9.0 0.00 0.00 0.00 53 1017.0
20260831061233 80 160 5.0 9.0 0.00 0.00 0.00 52 1017.0
20260831060232 81 178 4.0 7.0 0.00 0.00 0.00 51 1017.1
20260831054229 81 183 3.0 5.0 0.00 0.00 0.00 50 1016.9
20260831053229 81 172 3.0 6.0 0.00 0.00 0.00 50 1016.8
20260831052231 81 157 2.0 5.0 0.00 0.00 0.00 50 1016.7
20260831051231 81 169 2.0 5.0 0.00 0.00 0.00 50 1016.7
20260831050231 82 163 2.0 4.0 0.00 0.00 0.00 50 1016.5
20260831045230 83 144 2.0 3.0 0.00 0.00 0.00 48 1016.6
20260831044228 83 138 2.0 5.0 0.00 0.00 0.00 49 1016.5
20260831043228 83 148 2.0 5.0 0.00 0.00 0.00 49 1016.5
20260831042230 83 145 2.0 6.0 0.00 0.00 0.00 50 1016.5
20260831041229 84 155 3.0 6.0 0.00 0.00 0.00 49 1016.5
20260831040712 84 142 4.0 6.0 0.00 0.00 0.00 50 1016.4
20260831035228 84 142 3.0 6.0 0.00 0.00 0.00 50 1016.3
20260831034715 84 140 4.0 8.0 0.00 0.00 0.00 50 1016.3
20260831033229 85 148 5.0 10.0 0.00 0.00 0.00 50 1016.2
20260831032223 85 146 6.0 11.0 0.00 0.00 0.00 50 1016.1
20260831031706 85 150 6.0 12.0 0.00 0.00 0.00 50 1016.1
20260831025711 86 134 6.0 11.0 0.00 0.00 0.00 48 1015.7
20260831024221 86 143 5.0 9.0 0.00 0.00 0.00 48 1015.7
20260831023219 86 142 6.0 8.0 0.00 0.00 0.00 46 1015.6
20260831022220 87 117 6.0 9.0 0.00 0.00 0.00 45 1015.7
20260831021704 87 133 6.0 10.0 0.00 0.00 0.00 44 1015.5
20260831020701 87 136 5.0 9.0 0.00 0.00 0.00 44 1015.3
20260831015657 87 135 4.0 7.0 0.00 0.00 0.00 43 1015.2
20260831014656 88 144 4.0 7.0 0.00 0.00 0.00 42 1015.2
20260831013214 89 132 4.0 7.0 0.00 0.00 0.00 41 1014.9
20260831012215 89 144 4.0 7.0 0.00 0.00 0.00 40 1014.9
20260831011213 90 134 3.0 5.0 0.00 0.00 0.00 40 1014.8
20260831010212 90 132 3.0 4.0 0.00 0.00 0.00 39 1014.8
20260831005219 91 141 3.0 6.0 0.00 0.00 0.00 38 1014.7
20260831004214 92 166 3.0 5.0 0.00 0.00 0.00 36 1014.8
20260831003213 92 174 5.0 7.0 0.00 0.00 0.00 36 1014.9
20260831002212 93 169 5.0 10.0 0.00 0.00 0.00 35 1014.8
20260831001704 93 198 5.0 8.0 0.00 0.00 0.00 35 1014.8
20260831000214 94 171 5.0 9.0 0.00 0.00 0.00 34 1014.9
20260830235211 94 194 4.0 10.0 0.00 0.00 0.00 33 1014.9
20260830234208 95 199 4.0 7.0 0.00 0.00 0.00 32 1014.9
20260830233209 95 194 7.0 13.0 0.00 0.00 0.00 32 1015.1
20260830232652 96 176 5.0 10.0 0.00 0.00 0.00 31 1015.1
20260830231209 96 174 6.0 12.0 0.00 0.00 0.00 31 1014.9
20260830230207 96 194 5.0 8.0 0.00 0.00 0.00 31 1014.9
20260830225207 97 157 6.0 11.0 0.00 0.00 0.00 31 1014.9
20260830224206 97 180 4.0 11.0 0.00 0.00 0.00 31 1014.9
20260830223207 97 182 6.0 10.0 0.00 0.00 0.00 31 1015.0
20260830222207 97 198 6.0 11.0 0.00 0.00 0.00 31 1015.0
20260830221207 97 184 7.0 11.0 0.00 0.00 0.00 32 1015.0
20260830220205 98 196 7.0 15.0 0.00 0.00 0.00 30 1015.0
20260830215205 98 159 6.0 13.0 0.00 0.00 0.00 30 1015.0
20260830214205 98 182 6.0 14.0 0.00 0.00 0.00 31 1015.1
20260830213207 98 180 9.0 20.0 0.00 0.00 0.00 30 1015.3
20260830212206 98 178 6.0 14.0 0.00 0.00 0.00 30 1015.2
20260830211656 99 213 5.0 13.0 0.00 0.00 0.00 29 1015.3
20260830210205 99 173 8.0 17.0 0.00 0.00 0.00 30 1015.3
20260830205204 99 227 7.0 14.0 0.00 0.00 0.00 30 1015.5
20260830204201 99 195 6.0 15.0 0.00 0.00 0.00 30 1015.6
20260830203201 99 184 5.0 13.0 0.00 0.00 0.00 29 1015.6
20260830202201 99 173 6.0 17.0 0.00 0.00 0.00 29 1015.7
20260830201202 99 206 5.0 11.0 0.00 0.00 0.00 30 1016.0
20260830200201 98 164 4.0 13.0 0.00 0.00 0.00 31 1015.9
20260830195202 98 80 4.0 12.0 0.00 0.00 0.00 31 1016.1
20260830194202 98 170 3.0 10.0 0.00 0.00 0.00 32 1016.2
20260830193202 98 180 6.0 13.0 0.00 0.00 0.00 32 1016.3
20260830192202 97 233 5.0 14.0 0.00 0.00 0.00 33 1016.3
20260830191201 98 189 6.0 16.0 0.00 0.00 0.00 33 1016.5
20260830190203 97 146 8.0 16.0 0.00 0.00 0.00 32 1016.5
20260830185202 97 188 5.0 14.0 0.00 0.00 0.00 34 1016.5
20260830183202 97 157 8.0 15.0 0.00 0.00 0.00 34 1016.7
20260830182200 96 177 8.0 17.0 0.00 0.00 0.00 34 1016.8
20260830181159 96 181 7.0 16.0 0.00 0.00 0.00 35 1017.0
20260830180158 96 191 7.0 17.0 0.00 0.00 0.00 35 1017.1
20260830175642 96 202 6.0 14.0 0.00 0.00 0.00 36 1017.5
20260830174637 94 275 9.0 15.0 0.00 0.00 0.00 36 1017.6
20260830173157 94 155 8.0 20.0 0.00 0.00 0.00 35 1017.7
20260830172200 94 211 8.0 20.0 0.00 0.00 0.00 36 1017.7
20260830171157 94 176 10.0 17.0 0.00 0.00 0.00 36 1017.8
20260830170158 93 186 9.0 15.0 0.00 0.00 0.00 38 1018.0
20260830165155 93 230 8.0 14.0 0.00 0.00 0.00 37 1018.2
20260830164633 93 221 8.0 16.0 0.00 0.00 0.00 38 1018.4
20260830162153 92 164 7.0 14.0 0.00 0.00 0.00 40 1018.6
20260830161638 91 201 9.0 16.0 0.00 0.00 0.00 41 1018.6
20260830160153 91 223 10.0 19.0 0.00 0.00 0.00 41 1018.8
20260830155151 90 198 9.0 15.0 0.00 0.00 0.00 42 1018.6
20260830154152 89 177 9.0 16.0 0.00 0.00 0.00 44 1018.6
20260830153152 88 162 10.0 18.0 0.00 0.00 0.00 45 1018.6
20260830152146 87 189 10.0 17.0 0.00 0.00 0.00 46 1018.4
20260830151626 86 182 9.0 15.0 0.00 0.00 0.00 47 1018.3
20260830150146 86 188 11.0 19.0 0.00 0.00 0.00 47 1018.2
20260830145146 85 199 10.0 19.0 0.00 0.00 0.00 50 1018.3
20260830144146 85 167 11.0 20.0 0.00 0.00 0.00 50 1018.3
20260830143146 84 205 10.0 21.0 0.00 0.00 0.00 52 1018.3
20260830142145 83 186 9.0 15.0 0.00 0.00 0.00 53 1018.3
20260830141149 82 180 9.0 15.0 0.00 0.00 0.00 55 1018.6
20260830140151 81 175 7.0 15.0 0.00 0.00 0.00 55 1018.4
20260830135143 81 200 7.0 12.0 0.00 0.00 0.00 56 1018.3
20260830134142 80 180 6.0 14.0 0.00 0.00 0.00 58 1018.4
20260830133142 79 181 5.0 8.0 0.00 0.00 0.00 59 1018.3
20260830132143 78 188 3.0 7.0 0.00 0.00 0.00 59 1018.3
20260830131144 78 175 4.0 7.0 0.00 0.00 0.00 60 1018.3
20260830130144 77 157 3.0 4.0 0.00 0.00 0.00 61 1018.2
20260830125145 76 167 3.0 4.0 0.00 0.00 0.00 62 1018.2
20260830124143 76 182 2.0 4.0 0.00 0.00 0.00 62 1018.3
20260830123142 76 169 1.0 4.0 0.00 0.00 0.00 62 1018.1
20260830122142 75 163 1.0 3.0 0.00 0.00 0.00 62 1017.9
20260830121144 75 171 0.0 2.0 0.00 0.00 0.00 62 1017.9
20260830120142 75 135 1.0 2.0 0.00 0.00 0.00 62 1017.8
20260830115143 75 175 0.0 0.0 0.00 0.00 0.00 62 1017.6
20260830114143 76 165 0.0 3.0 0.00 0.00 0.00 60 1017.5
20260830113143 76 171 1.0 2.0 0.00 0.00 0.00 60 1017.5
20260830112142 76 153 2.0 4.0 0.00 0.00 0.00 59 1017.3
20260830111634 76 143 2.0 5.0 0.00 0.00 0.00 59 1017.3
20260830110144 77 163 3.0 7.0 0.00 0.00 0.00 58 1017.3
20260830105143 77 166 5.0 11.0 0.00 0.00 0.00 58 1017.3
20260830104623 77 142 6.0 10.0 0.00 0.00 0.00 58 1017.2
20260830103621 77 146 6.0 10.0 0.00 0.00 0.00 58 1017.1
20260830102617 76 161 6.0 11.0 0.00 0.00 0.00 59 1017.1
20260830101143 76 137 6.0 9.0 0.00 0.00 0.00 59 1017.1
20260830100142 75 155 5.0 8.0 0.00 0.00 0.00 59 1017.2
20260830095618 75 169 3.0 5.0 0.00 0.00 0.00 60 1017.3
20260830094137 75 160 2.0 4.0 0.00 0.00 0.00 60 1017.3